ICECUBE (42705 NORAD) Tracking and Keplerian Element Data

This shows tracking and keplerian element data for the satellite.

Feedback or suggestion? Click here.




ElementValue
Catalog42705
NameICECUBE
Epoch Orbit6696
Epoch Day198.96373287
Epoch Year2018
RAAN188.096
Inclination51.644
Eccentricity0.000322
Argument of Perigee25.4218
Mean Anonmoly334.6943
Mean Motion15.83468342
Decay Rate0.00048265
L11 42705U 98067LN 18198.96373287 .00048265 00000-0 21823-3 0 9994
L22 42705 51.6440 188.0960 0003220 25.4218 334.6943 15.83468342 66964

Live tracking and technical data element details for ICECUBE (NORAD 42705). ICECUBE can be tracked NOW for your location showing map with azimuth and elevation plus other details from your city location.

Track the satellite on the map from your city or location and see movement details for azimuth, elevation, latitude, longitude, range, height, and movement on the map or in text.







IsCatalogInMostPopularTable: catalog: 42705, numindb: 104
Update: records affected: 1



GetName: 42705 ICECUBE

Hit Count: updated at: Thu, 19 Jul 2018 21:16:06 GMT